Previsão horária em Almendralejo

Hoje, 22 Janeiro, Sexta-feira

Tempo Temperatura Precipitação Vento Pressão Humidade
00:00 +12°C° 0.7 mm 8 m/s 730 mmHg 91%
01:00 +12°C° 0.1 mm 8 m/s 729 mmHg 91%
02:00 +11°C° 0.1 mm 8 m/s 729 mmHg 91%
03:00 +11°C° 0.1 mm 9 m/s 729 mmHg 91%
04:00 +11°C° 0.1 mm 9 m/s 729 mmHg 88%
05:00 +9°C° 0.1 mm 10 m/s 729 mmHg 86%
06:00 +9°C° 0.1 mm 10 m/s 729 mmHg 83%
07:00 +8°C° 0 mm 9 m/s 730 mmHg 83%
08:00 +8°C° 0 mm 9 m/s 730 mmHg 83%
09:00 +7°C° 0 mm 8 m/s 731 mmHg 82%
10:00 +8°C° 0.1 mm 9 m/s 731 mmHg 78%
11:00 +9°C° 0.1 mm 10 m/s 731 mmHg 73%
12:00 +11°C° 0.1 mm 11 m/s 732 mmHg 68%
13:00 +11°C° 0.2 mm 11 m/s 732 mmHg 68%
14:00 +9°C° 0.2 mm 10 m/s 732 mmHg 68%
15:00 +10°C° 0.2 mm 9 m/s 731 mmHg 67%
16:00 +9°C° 0 mm 8 m/s 732 mmHg 73%
17:00 +8°C° 0 mm 6 m/s 732 mmHg 78%
18:00 +7°C° 0 mm 5 m/s 732 mmHg 83%
19:00 +7°C° 0 mm 5 m/s 733 mmHg 86%
20:00 +6°C° 0 mm 4 m/s 733 mmHg 89%
21:00 +6°C° 0 mm 4 m/s 734 mmHg 92%
22:00 +5°C° 0 mm 4 m/s 734 mmHg 92%
23:00 +5°C° 0 mm 4 m/s 734 mmHg 92%

Amanhã, 23 Janeiro, Sábado

Tempo Temperatura Precipitação Vento Pressão Humidade
00:00 +5°C° 0 mm 4 m/s 734 mmHg 92%
01:00 +5°C° 0 mm 4 m/s 734 mmHg 92%
02:00 +5°C° 0 mm 4 m/s 734 mmHg 92%
03:00 +5°C° 0 mm 5 m/s 734 mmHg 91%
04:00 +5°C° 0 mm 5 m/s 734 mmHg 92%
05:00 +5°C° 0 mm 5 m/s 734 mmHg 93%
06:00 +5°C° 0 mm 5 m/s 734 mmHg 94%
07:00 +6°C° 0 mm 5 m/s 734 mmHg 91%
08:00 +7°C° 0 mm 5 m/s 734 mmHg 88%
09:00 +7°C° 0 mm 5 m/s 734 mmHg 85%
10:00 +8°C° 0 mm 6 m/s 734 mmHg 84%
11:00 +9°C° 0 mm 7 m/s 733 mmHg 83%
12:00 +10°C° 0 mm 7 m/s 733 mmHg 82%
13:00 +10°C° 0.1 mm 8 m/s 732 mmHg 82%
14:00 +10°C° 0.1 mm 8 m/s 731 mmHg 83%
15:00 +10°C° 0.1 mm 8 m/s 730 mmHg 84%
16:00 +10°C° 0.1 mm 8 m/s 730 mmHg 86%
17:00 +10°C° 0.1 mm 9 m/s 730 mmHg 87%
18:00 +10°C° 0.1 mm 9 m/s 729 mmHg 88%
19:00 +11°C° 0.5 mm 9 m/s 729 mmHg 90%
20:00 +11°C° 0.5 mm 9 m/s 729 mmHg 91%
21:00 +12°C° 0.5 mm 9 m/s 729 mmHg 93%
22:00 +12°C° 0.6 mm 9 m/s 729 mmHg 92%
23:00 +12°C° 0.6 mm 9 m/s 729 mmHg 92%

Depois de amanhã, 24 Janeiro, Domingo

Tempo Temperatura Precipitação Vento Pressão Humidade
00:00 +12°C° 0.6 mm 9 m/s 729 mmHg 92%
01:00 +11°C° 0.1 mm 8 m/s 730 mmHg 92%
02:00 +10°C° 0.1 mm 7 m/s 730 mmHg 91%
03:00 +9°C° 0.1 mm 6 m/s 730 mmHg 91%
04:00 +8°C° 0 mm 5 m/s 730 mmHg 92%
05:00 +8°C° 0 mm 5 m/s 730 mmHg 94%
06:00 +7°C° 0 mm 4 m/s 730 mmHg 95%
07:00 +7°C° 0 mm 4 m/s 731 mmHg 94%
08:00 +7°C° 0 mm 4 m/s 731 mmHg 93%
09:00 +8°C° 0 mm 4 m/s 732 mmHg 91%
10:00 +10°C° 0 mm 4 m/s 732 mmHg 87%
11:00 +10°C° 0 mm 5 m/s 732 mmHg 82%
12:00 +12°C° 0 mm 5 m/s 733 mmHg 77%
13:00 +12°C° 0 mm 4 m/s 732 mmHg 75%
14:00 +12°C° 0 mm 4 m/s 732 mmHg 73%
15:00 +12°C° 0 mm 4 m/s 731 mmHg 71%
16:00 +11°C° 0 mm 3 m/s 731 mmHg 75%
17:00 +10°C° 0 mm 3 m/s 731 mmHg 79%
18:00 +9°C° 0 mm 2 m/s 731 mmHg 83%
19:00 +9°C° 0 mm 2 m/s 732 mmHg 85%
20:00 +9°C° 0 mm 2 m/s 732 mmHg 87%
21:00 +9°C° 0 mm 1 m/s 732 mmHg 89%
22:00 +9°C° 0 mm 1 m/s 733 mmHg 90%
23:00 +9°C° 0 mm 1 m/s 733 mmHg 90%

25 Janeiro, Segunda-feira

Tempo Temperatura Precipitação Vento Pressão Humidade
00:00 +9°C° 0 mm 1 m/s 733 mmHg 91%
01:00 +9°C° 0 mm 1 m/s 733 mmHg 92%
02:00 +9°C° 0 mm 1 m/s 733 mmHg 93%
03:00 +8°C° 0 mm 1 m/s 733 mmHg 94%
04:00 +8°C° 0 mm 1 m/s 733 mmHg 94%
05:00 +8°C° 0 mm 1 m/s 733 mmHg 94%
06:00 +7°C° 0 mm 1 m/s 732 mmHg 94%
07:00 +8°C° 0 mm 1 m/s 733 mmHg 92%
08:00 +9°C° 0 mm 1 m/s 733 mmHg 90%
09:00 +9°C° 0 mm 0 m/s 734 mmHg 88%
10:00 +10°C° 0 mm 1 m/s 734 mmHg 84%
11:00 +11°C° 0 mm 1 m/s 734 mmHg 81%
12:00 +12°C° 0 mm 2 m/s 734 mmHg 77%
13:00 +13°C° 0 mm 2 m/s 734 mmHg 77%
14:00 +14°C° 0 mm 2 m/s 734 mmHg 77%
15:00 +14°C° 0 mm 1 m/s 734 mmHg 76%
16:00 +14°C° 0.2 mm 1 m/s 734 mmHg 81%
17:00 +13°C° 0.2 mm 1 m/s 734 mmHg 86%
18:00 +12°C° 0.2 mm 1 m/s 734 mmHg 91%
19:00 +12°C° 0.1 mm 1 m/s 734 mmHg 92%
20:00 +12°C° 0.1 mm 2 m/s 735 mmHg 93%
21:00 +12°C° 0.1 mm 2 m/s 735 mmHg 94%
22:00 +12°C° 0 mm 2 m/s 736 mmHg 95%
23:00 +12°C° 0 mm 2 m/s 736 mmHg 95%

26 Janeiro, Terça-feira

Tempo Temperatura Precipitação Vento Pressão Humidade
00:00 +12°C° 0 mm 2 m/s 736 mmHg 96%
01:00 +12°C° 0 mm 2 m/s 736 mmHg 96%
02:00 +12°C° 0 mm 2 m/s 736 mmHg 97%
03:00 +12°C° 0 mm 2 m/s 736 mmHg 98%
04:00 +12°C° 0 mm 2 m/s 736 mmHg 98%
05:00 +12°C° 0 mm 1 m/s 736 mmHg 98%
06:00 +12°C° 0 mm 1 m/s 737 mmHg 98%
07:00 +12°C° 0 mm 2 m/s 737 mmHg 96%
08:00 +13°C° 0 mm 2 m/s 738 mmHg 95%
09:00 +13°C° 0 mm 2 m/s 738 mmHg 93%
10:00 +14°C° 0 mm 2 m/s 738 mmHg 90%
11:00 +14°C° 0 mm 2 m/s 738 mmHg 86%
12:00 +14°C° 0 mm 3 m/s 739 mmHg 82%
13:00 +14°C° 0 mm 3 m/s 738 mmHg 83%
14:00 +14°C° 0 mm 3 m/s 738 mmHg 84%
15:00 +14°C° 0 mm 3 m/s 738 mmHg 85%
16:00 +14°C° 0 mm 3 m/s 738 mmHg 87%
17:00 +15°C° 0 mm 2 m/s 738 mmHg 90%
18:00 +14°C° 0 mm 2 m/s 738 mmHg 93%
19:00 +14°C° 0 mm 2 m/s 738 mmHg 94%
20:00 +14°C° 0 mm 2 m/s 739 mmHg 95%
21:00 +13°C° 0 mm 1 m/s 739 mmHg 96%
22:00 +14°C° 0 mm 1 m/s 739 mmHg 96%
23:00 +14°C° 0 mm 2 m/s 739 mmHg 97%

27 Janeiro, Quarta-feira

Tempo Temperatura Precipitação Vento Pressão Humidade
00:00 +14°C° 0 mm 2 m/s 739 mmHg 97%
01:00 +14°C° 0 mm 1 m/s 739 mmHg 97%
02:00 +14°C° 0 mm 1 m/s 739 mmHg 97%
03:00 +13°C° 0 mm 1 m/s 738 mmHg 98%
04:00 +13°C° 0 mm 1 m/s 738 mmHg 98%
05:00 +13°C° 0 mm 1 m/s 738 mmHg 98%
06:00 +13°C° 0 mm 1 m/s 738 mmHg 98%
07:00 +13°C° 0 mm 1 m/s 738 mmHg 97%
08:00 +13°C° 0 mm 1 m/s 738 mmHg 96%
09:00 +14°C° 0 mm 1 m/s 739 mmHg 95%
10:00 +14°C° 0 mm 1 m/s 739 mmHg 91%
11:00 +15°C° 0 mm 2 m/s 739 mmHg 88%
12:00 +16°C° 0 mm 2 m/s 739 mmHg 85%
13:00 +16°C° 0 mm 2 m/s 739 mmHg 84%
14:00 +16°C° 0 mm 2 m/s 738 mmHg 83%
15:00 +16°C° 0 mm 2 m/s 738 mmHg 82%
16:00 +16°C° 0 mm 2 m/s 738 mmHg 84%
17:00 +15°C° 0 mm 1 m/s 738 mmHg 86%
18:00 +15°C° 0 mm 1 m/s 738 mmHg 89%
19:00 +15°C° 0 mm 1 m/s 738 mmHg 89%
20:00 +15°C° 0 mm 1 m/s 739 mmHg 90%
21:00 +14°C° 0 mm 1 m/s 739 mmHg 90%
22:00 +14°C° 0 mm 1 m/s 739 mmHg 92%
23:00 +13°C° 0 mm 1 m/s 739 mmHg 94%
Mostrar mais

Necessitamos do seu Consentimento

A Meteoprog e os seus Fornecedores de Serviços podem armazenar e aceder a dados pessoais como cookies, identificadores do dispositivo ou outras tecnologias semelhantes existentes no seu dispositivo e processar estes dados para personalizar conteúdos e anúncios, assim como funcionalidades nas redes sociais e análise de tráfego.

  • Armazenar e/ou aceder a informações no seu dispositivo

    Os cookies, identificadores do dispositivo ou outras informações podem ser armazenados ou acedidos no seu dispositivo, para os fins acima indicados.

  • Anúncios e conteúdos personalizados, medição de anúncios e conteúdos, dados sobre o público-alvo e desenvolvimento de produtos

    Os anúncios e os conteúdos podem ser personalizados com base num perfil. Podem ser adicionados dados adicionais para uma maior personalização dos anúncios e dos conteúdos. A eficácia dos anúncios e dos conteúdos pode ser medida. Podem ser obtidas informações sobre o público que visualizou os anúncios e os conteúdos. Estes dados podem ser usados para desenvolver ou melhorar sistemas, softwares ou a experiência do utilizador.

Ao clicar em "Eu concordo”, permitirá o uso de cookies, identificadores do dispositivo e web beacons mencionados ou outras tecnologias semelhantes. As configurações do navegador do seu dispositivo podem ser alteradas.

Para certos fins, podem ser invocados interesses legítimos ao invés de consentimento. Pode ler mais informação sobre este assunto na nossa Política de Privacidade e Cookies.